Back to catalog

STARLINK-30477

AliveCommunicationsVLEO
NORAD 57912·PAYLOAD·🇺🇸 United States

Launched Sep 20, 2023 from Cape Canaveral Space Force Station

Loading…

Next Passes (next 24 hours)

TLE

FreshSource: CelesTrak SupGP

Epoch: Sep 14, 2026, 21:41 UTC

1 57912C 23146X   26257.90395833 -.00073946  00000+0 -26784-2 0  2578
2 57912  43.0021 322.0061 0001532 262.9598 200.9239 15.27613995    16

Track STARLINK-30477 in real time with AllMySat

Download on the App Store